Track AISTECHSAT-3 now! 10-day predictions AISTECHSAT-3 is classified as:
1 44103U 19018AB 21105.43236405 .00001088 00000-0 47936-4 0 9997 2 44103 97.3656 168.0394 0012629 198.4092 218.6279 15.23888085113417